Aberdeen, SD

4:36 AM CDT on September 27, 2016 (GMT -0500)
Aberdeen Regional

Weather History for KABR - May, 2014

Change the Weather History Date:

Wednesday, May 28, 2014

  Actual Average Record
Temperature  
Mean Temperature 69 °F 60 °F  
Max Temperature 85 °F 72 °F 102 °F (1934)
Min Temperature 52 °F 48 °F 30 °F (1965)
Degree Days  
Heating Degree Days 0 6  
Month to date heating degree days 338 269  
Since 1 July heating degree days 9441 8440  
Cooling Degree Days 4 1  
Month to date cooling degree days 25 18  
Year to date cooling degree days 25 20  
Growing Degree Days 18 (Base 50)    
Moisture  
Dew Point 58 °F    
Average Humidity 70    
Maximum Humidity 100    
Minimum Humidity 40    
Precipitation  
Precipitation 0.00 in 0.10 in 1.00 in (1899)
Month to date precipitation 1.70 2.81  
Year to date precipitation 4.95 6.84  
Sea Level Pressure  
Sea Level Pressure 30.00 in    
Wind  
Wind Speed 7 mph (SSE)    
Max Wind Speed 15 mph    
Max Gust Speed 19 mph    
Visibility 7 miles    
Events Fog    
T = Trace of Precipitation, MM = Missing Value Source: NWS Daily Summary

Daily Weather History Graph

Daily Weather History Graph

Search for Another Location

Airport or City:

Trip Planner

Search our weather history database for the weather conditions in past years. The results will help you decide how hot, cold, wet, or windy it might be!

Date:

Astronomy

May. 28, 2014 Rise Set
Actual Time 5:51 AM CDT 9:11 PM CDT
Civil Twilight 5:14 AM CDT 9:47 PM CDT
Nautical Twilight 4:27 AM CDT 10:35 PM CDT
Astronomical Twilight 3:27 AM CDT 11:35 PM CDT
Moon 6:02 AM CDT (5/28) 9:08 PM CDT (5/28)
Length of Visible Light 16h 33m
Length of Day
15h 20m
Waning Crescent, 0% of the Moon is Illuminated
May 28
Waning Crescent
May 28
New
Jun 5
First Quarter
Jun 12
Full
Jun 19
Last Quarter

Hourly Weather History & Observations

Time (CDT) Temp. Heat Index Dew Point Humidity Pressure Visibility Wind Dir Wind Speed Gust Speed Precip Events Conditions
12:53 AM 55.9 °F - 55.9 °F 100% 29.98 in 9.0 mi South 4.6 mph - N/A   Clear
1:53 AM 55.0 °F - 55.0 °F 100% 29.97 in 6.0 mi SSW 5.8 mph - N/A   Clear
2:53 AM 55.0 °F - 55.0 °F 100% 29.98 in 6.0 mi SSW 4.6 mph - N/A   Clear
3:53 AM 54.0 °F - 54.0 °F 100% 29.97 in 5.0 mi SSW 5.8 mph - N/A   Clear
4:53 AM 53.1 °F - 53.1 °F 100% 30.00 in 3.0 mi South 4.6 mph - N/A   Clear
5:04 AM 53.1 °F - 53.1 °F 100% 30.02 in 2.5 mi SE 9.2 mph - N/A   Partly Cloudy
5:08 AM 54.0 °F - 54.0 °F 100% 30.02 in 1.2 mi South 6.9 mph - N/A   Scattered Clouds
5:11 AM 54.0 °F - 54.0 °F 100% 30.01 in 0.8 mi South 8.1 mph - N/A   Mist
5:49 AM 53.6 °F - 53.6 °F 100% 30.02 in 0.5 mi SSW 3.5 mph - N/A Fog Fog
5:53 AM 54.0 °F - 54.0 °F 100% 30.02 in 0.2 mi SSW 3.5 mph - N/A Fog Fog
6:39 AM 54.0 °F - 54.0 °F 100% 30.03 in 0.8 mi WSW 4.6 mph - N/A   Mist
6:53 AM 54.0 °F - 54.0 °F 100% 30.03 in 1.8 mi Calm Calm - N/A   Clear
7:01 AM 55.9 °F - 55.9 °F 100% 30.03 in 3.0 mi Calm Calm - N/A   Clear
7:53 AM 62.1 °F - 60.1 °F 93% 30.03 in 6.0 mi WSW 4.6 mph - N/A   Clear
8:53 AM 69.1 °F - 61.0 °F 75% 30.03 in 10.0 mi SSE 3.5 mph - N/A   Clear
9:53 AM 73.0 °F - 61.0 °F 66% 30.03 in 10.0 mi South 3.5 mph - N/A   Clear
10:53 AM 73.9 °F - 64.0 °F 71% 30.03 in 10.0 mi SE 6.9 mph - N/A   Clear
11:53 AM 77.0 °F - 62.1 °F 60% 30.03 in 10.0 mi SE 5.8 mph - N/A   Clear
1:53 PM 82.0 °F 83.1 °F 63.0 °F 52% 30.02 in 10.0 mi South 6.9 mph - N/A   Clear
2:53 PM 82.9 °F 83.7 °F 62.1 °F 49% 30.01 in 10.0 mi South 10.4 mph - N/A   Partly Cloudy
3:43 PM 84.0 °F 83.8 °F 59.0 °F 43% 30.01 in 10.0 mi SSE 11.5 mph - N/A   Partly Cloudy
3:53 PM 84.0 °F 84.4 °F 61.0 °F 46% 30.00 in 10.0 mi SSE 10.4 mph 19.6 mph N/A   Clear
4:53 PM 84.0 °F 83.5 °F 57.9 °F 41% 29.99 in 10.0 mi South 4.6 mph - N/A   Partly Cloudy
5:53 PM 84.0 °F 84.0 °F 60.1 °F 44% 29.98 in 10.0 mi SSE 11.5 mph - N/A   Clear
6:53 PM 82.0 °F 82.0 °F 57.9 °F 44% 29.97 in 10.0 mi SE 11.5 mph - N/A   Clear
7:53 PM 80.1 °F 80.7 °F 59.0 °F 48% 29.96 in 10.0 mi SSE 10.4 mph - N/A   Clear
8:53 PM 73.0 °F - 61.0 °F 66% 29.97 in 10.0 mi SE 8.1 mph - N/A   Clear
9:53 PM 66.9 °F - 60.1 °F 79% 29.99 in 10.0 mi ESE 6.9 mph - N/A   Clear
10:53 PM 68.0 °F - 61.0 °F 78% 29.99 in 10.0 mi ESE 6.9 mph - N/A   Clear
11:53 PM 66.9 °F - 60.1 °F 79% 30.00 in 10.0 mi SE 8.1 mph - N/A   Clear